Temperature
25 24 22 21 20 20 19 19 19 19 18 18 18 18 18 18 18 18 18 18 18 18 18 18 18 18 18 18 18 18 18 18 18 18 18 18 18 18 18 18 17 17 17
25 23 22 21 20 20 19 19 19 19 19 18 18 18 18 18 18 18 18 18 18 18 18 18 18 18 18 18 18 18 18 18 18 18 18 18 18 18 18 18 18 18 17
25 23 22 21 20 20 19 19 19 19 19 18 18 18 18 18 18 18 18 18 18 18 18 18 18 18 18 18 18 18 18 18 18 18 18 18 18 18 18 18 18 18 18
25 24 22 21 21 20 19 19 19 19 19 18 18 18 18 18 18 18 18 18 18 18 18 18 18 18 18 18 18 18 18 18 18 18 18 18 18 18 18 18 18 18 18
26 24 23 22 21 20 19 19 19 19 19 18 18 18 18 18 18 18 18 18 18 18 18 18 18 18 18 18 18 18 18 18 18 18 18 18 18 18 18 18 18 18 18
26 24 23 22 21 20 19 19 19 18 18 18 18 18 18 18 18 18 18 18 18 18 18 18 18 18 18 18 18 17 17 17 17 18 18 18 18 18 18 18 18 18 18
26 24 23 22 21 20 20 19 19 18 18 18 18 18 18 18 18 18 18 18 18 18 18 17 17 18 18 17 17 17 17 17 17 17 17 18 18 18 18 18 18 18 18
26 25 23 22 21 21 20 19 19 18 18 18 18 18 18 18 18 18 18 18 18 18 18 17 17 17 17 17 17 17 17 17 17 17 17 17 18 18 18 18 18 18 18
26 24 23 22 21 20 20 19 19 18 18 18 18 18 18 18 18 18 17 17 17 18 18 18 17 17 17 17 17 17 17 17 17 17 17 17 17 17 17 18 18 18 18
26 25 23 22 21 20 20 19 19 18 18 18 18 18 18 18 18 18 17 17 17 17 17 17 17 17 17 17 17 17 17 17 16 16 16 17 17 17 17 17 17 17 17
26 24 23 22 21 20 19 19 18 18 18 18 18 18 18 17 17 17 17 17 17 17 17 17 17 17 16 16 16 16 16 16 16 16 16 16 16 16 17 17 17 17 17
25 24 23 22 21 20 19 19 18 18 18 17 17 17 17 17 17 17 17 17 17 17 17 16 16 16 16 16 16 16 16 16 16 16 16 16 16 16 16 16 16 16 16
25 24 23 22 21 20 19 19 18 18 17 17 17 17 17 17 17 17 17 17 17 17 16 16 16 16 16 16 16 16 16 16 15 15 15 15 15 15 15 15 16 15 15
24 23 22 21 20 20 19 19 18 18 17 17 17 17 17 17 17 17 16 16 16 16 16 16 16 16 16 16 15 15 15 15 15 15 15 15 15 15 15 15 15 15 15
23 22 21 21 20 19 19 18 18 17 17 17 17 16 16 16 16 16 16 16 16 16 16 16 16 16 15 15 15 15 15 15 14 14 14 14 14 14 14 14 14 14 14
23 22 21 20 19 19 18 18 17 17 17 16 16 16 16 16 16 16 16 16 16 16 16 15 15 15 15 15 15 15 14 14 14 14 13 13 13 13 13 13 13 13 13
23 22 21 20 19 18 18 17 17 17 17 16 16 16 16 16 16 15 15 15 15 15 15 15 15 14 14 14 14 14 14 13 13 13 13 13 12 12 12 12 12 12 12
22 21 20 19 18 18 18 17 17 17 16 16 16 16 16 15 15 15 15 15 15 15 14 14 14 14 14 14 14 13 13 13 13 12 12 12 12 11 11 11 11 11 11
21 20 20 19 18 18 17 17 17 16 16 16 16 15 15 15 15 15 15 14 14 14 14 13 13 13 13 13 13 13 13 12 12 11 11 11 11 11 10 10 10 10 9
19 19 19 18 18 17 17 17 16 16 16 16 15 15 15 15 15 14 14 14 14 13 13 13 13 12 12 12 12 12 12 11 11 10 10 10 10 10 9 9 9 9 8
19 18 18 17 17 16 16 16 16 16 15 15 15 15 15 14 14 14 14 13 13 13 13 12 12 12 11 11 11 11 11 11 10 10 9 9 9 9 8 8 8 8 7
18 17 17 16 16 16 16 15 15 15 15 15 15 14 14 14 14 13 13 13 13 12 12 11 11 11 10 10 10 10 10 10 10 9 9 8 8 8 8 7 7 7 7
16 16 16 15 15 15 15 15 15 15 14 14 14 14 14 13 13 13 13 12 12 12 11 11 10 10 9 9 9 9 9 9 9 8 8 7 7 7 7 7 6 6 6
15 15 15 15 15 14 15 14 14 14 14 14 13 13 13 12 12 12 12 11 11 11 10 10 10 9 9 8 8 8 8 8 8 7 7 7 6 6 6 6 6 6 5
15 14 14 14 14 14 14 14 13 13 13 13 13 12 12 12 11 11 11 11 10 10 10 10 9 9 8 8 8 8 7 7 7 7 6 6 6 6 5 5 5 5 5
14 13 13 13 13 13 13 13 13 13 13 12 12 12 11 11 11 10 10 9 9 9 9 9 9 8 8 7 7 7 7 6 6 6 6 6 6 5 5 5 5 5 4
Wind_Speed
11 11 12 12 12 11 12 12 11 11 9 8 8 6 5 5 4 4 8 9 8 8 5 2 4 2 2 3 4 3 4 3 2 1 1 2 4 5 5 4 4 7 10
11 12 11 11 12 11 12 12 11 12 11 8 7 5 5 4 4 4 6 9 8 7 7 4 4 4 3 3 2 2 2 3 3 2 1 1 1 2 5 4 5 5 6
12 12 12 11 12 12 13 12 11 11 11 10 7 5 4 3 4 4 5 6 7 7 5 5 3 3 4 4 4 4 4 2 2 2 2 1 1 2 2 4 4 4 4
12 12 12 11 12 12 12 11 11 11 10 9 9 9 7 6 6 5 5 6 6 7 7 6 4 3 3 4 5 5 3 3 3 2 1 2 1 1 1 2 3 6 5
11 12 11 11 11 11 11 11 11 11 10 10 9 9 8 6 5 5 6 7 6 6 7 6 5 5 4 4 3 3 3 2 3 2 2 2 2 3 2 2 2 3 3
11 11 10 9 9 10 10 10 10 10 11 10 9 9 9 8 7 6 6 6 5 5 6 7 6 5 5 4 4 3 4 2 1 2 2 1 1 2 1 2 2 3 3
10 10 10 9 9 10 10 10 10 9 10 10 9 9 9 8 8 7 7 7 6 6 7 7 6 6 5 4 4 4 3 3 3 3 3 2 2 1 1 1 1 2 2
10 10 11 9 9 9 9 9 9 9 9 9 8 8 8 7 6 7 7 7 6 6 7 6 6 6 6 6 5 4 5 4 4 5 3 2 2 3 2 1 1 1 1
11 11 10 9 8 8 8 8 8 8 7 7 7 7 7 7 6 6 6 4 4 5 7 7 6 5 6 5 5 5 5 5 5 4 4 3 2 3 3 2 1 1 2
10 10 10 9 8 8 7 6 6 6 6 6 6 6 6 6 6 5 6 5 4 4 5 6 6 5 5 5 5 4 4 3 3 2 2 2 2 2 2 1 1 1 0
10 9 8 8 8 8 8 7 6 6 6 5 5 5 5 5 5 5 5 5 4 4 4 5 5 5 5 5 5 4 4 4 3 3 3 2 1 1 2 2 1 2 1
11 10 9 8 8 8 8 7 6 5 5 4 4 4 4 5 5 5 5 4 5 4 4 4 4 4 4 4 5 5 4 4 3 2 1 1 1 1 2 3 3 3 3
10 10 9 7 7 7 7 7 6 6 5 5 4 4 4 4 4 4 4 4 5 5 4 5 5 4 4 4 4 4 3 4 4 4 3 3 3 3 3 4 4 4 4
9 9 8 7 7 7 6 6 5 5 5 5 5 4 4 4 4 4 5 5 5 5 4 4 4 4 4 4 5 5 6 6 7 7 8 8 7 6 5 5 5 5 6
9 8 7 7 6 6 6 5 5 5 5 5 5 4 5 5 5 5 6 6 6 5 5 5 4 4 3 4 6 7 8 9 10 11 11 11 14 15 11 8 7 7 6
8 8 8 8 6 6 5 5 6 6 5 5 5 5 5 5 6 6 6 7 6 6 6 5 5 5 4 7 11 10 10 10 11 11 10 11 12 16 18 19 17 13 9
8 8 8 7 6 6 5 6 6 6 6 6 5 6 6 6 6 7 7 7 7 7 6 6 7 8 9 12 14 15 11 11 11 10 9 9 10 11 10 15 17 17 18
8 8 8 8 7 6 6 6 6 6 7 6 6 6 7 7 7 7 7 7 7 7 7 8 9 9 10 14 17 18 13 12 11 10 9 9 9 9 10 11 12 11 11
9 8 7 8 7 6 6 6 6 6 6 6 6 6 7 8 8 8 7 7 8 8 8 8 9 10 10 13 15 15 12 12 12 10 10 10 10 11 12 11 11 10 8
8 7 7 8 7 6 5 5 5 6 5 6 6 6 7 7 8 8 8 8 8 9 10 10 10 11 10 11 13 13 10 11 10 10 10 13 11 11 10 9 8 8 5
7 7 7 6 6 5 5 5 5 4 5 6 7 7 7 7 8 8 8 9 10 11 12 12 11 11 11 12 13 12 9 10 10 9 8 8 11 11 11 8 7 5 3
7 7 7 6 5 5 5 5 5 5 5 7 7 7 8 7 8 9 9 10 11 12 12 12 11 9 9 11 13 15 13 11 11 9 8 8 11 11 10 7 6 6 4
6 5 6 6 6 5 5 5 5 6 7 7 8 8 9 8 8 9 10 9 9 9 10 10 10 9 9 11 16 16 15 14 10 9 12 11 10 9 7 8 7 5 4
5 5 5 6 6 5 5 5 5 7 8 8 8 9 10 10 9 8 7 7 7 8 9 10 10 10 8 8 8 9 11 13 12 10 10 9 7 5 5 5 4 3 5
5 5 5 6 6 6 5 6 6 7 9 9 9 10 10 10 11 11 9 8 7 7 9 9 9 10 9 7 8 8 7 7 8 7 5 5 4 4 4 4 4 4 5
6 6 7 7 6 6 7 6 6 7 9 9 9 9 9 9 11 12 13 19 15 17 16 13 12 10 12 13 12 11 11 10 8 6 5 5 5 5 5 4 4 4 4
Wind_Direction
160 156 159 164 166 168 169 170 173 168 169 176 180 185 186 185 180 173 162 167 179 174 189 191 157 186 159 157 158 160 175 210 213 223 223 211 194 188 183 201 179 183 192
158 157 160 166 170 172 173 174 176 173 176 181 180 180 179 188 188 184 160 171 173 177 186 185 181 174 155 172 186 168 185 224 206 200 199 254 253 228 203 187 198 189 184
161 164 168 173 172 173 175 178 178 178 182 177 172 177 172 186 192 174 169 177 175 185 188 168 194 166 179 180 187 192 199 234 238 204 181 182 211 237 233 201 192 181 183
162 164 171 175 175 174 173 172 175 178 181 179 180 181 188 193 192 179 175 182 184 186 183 179 186 183 194 167 196 194 203 217 252 235 201 199 167 193 207 252 201 188 190
164 159 169 173 174 172 171 172 171 176 180 187 188 192 195 193 187 178 179 185 186 188 186 181 181 187 202 189 197 162 184 218 241 250 229 229 217 233 201 224 217 201 191
150 150 157 155 161 167 170 170 172 178 181 188 192 195 195 190 186 185 184 188 187 193 195 187 180 189 201 185 175 180 198 219 278 297 282 234 233 250 236 210 201 200 204
139 141 145 152 159 167 169 171 173 178 181 187 193 194 198 196 195 192 194 194 193 198 200 195 182 194 195 183 181 184 213 212 217 243 269 284 278 269 264 225 226 199 190
140 140 146 154 158 164 166 168 171 177 182 188 193 196 195 198 203 201 200 200 204 199 189 185 183 195 191 193 183 196 203 203 210 228 236 281 289 300 299 262 213 215 226
136 139 145 148 150 155 155 162 162 171 181 188 188 190 190 195 199 195 203 204 200 195 175 177 182 189 191 197 186 208 216 184 197 219 215 229 261 273 292 306 314 213 225
140 139 142 143 146 146 141 143 147 159 170 177 182 184 186 189 190 192 194 196 194 188 167 175 181 183 183 188 195 212 199 179 195 206 207 214 264 291 280 299 330 338 206
127 124 131 136 137 136 139 141 139 148 160 167 169 173 178 183 184 187 187 184 177 164 170 172 177 179 182 179 183 208 182 177 191 214 187 185 240 338 338 9 7 359 38
124 130 135 135 138 139 139 137 141 147 149 151 157 169 171 172 174 178 180 176 166 159 161 164 164 172 170 171 176 197 179 163 173 173 125 144 181 113 354 13 22 37 50
124 128 132 136 134 131 132 137 144 143 144 148 153 155 162 165 167 170 170 161 155 152 147 141 144 157 155 157 169 170 142 124 106 92 78 65 64 58 47 39 32 33 46
123 125 128 126 120 120 121 130 134 133 139 141 139 138 141 142 146 147 142 137 134 132 131 130 130 137 143 142 140 129 111 95 82 75 71 65 63 60 56 53 41 51 58
129 127 128 121 123 122 122 122 118 117 123 128 133 137 129 128 128 125 124 122 119 123 120 116 113 116 133 137 130 120 113 101 89 78 74 74 75 70 67 67 51 51 59
133 131 131 127 127 126 130 125 122 120 120 125 127 126 124 122 121 118 113 112 112 111 110 109 109 108 109 104 112 115 107 101 98 93 86 81 78 78 75 72 66 62 65
133 129 126 126 128 129 129 130 127 127 125 123 123 124 125 123 118 117 112 108 107 105 100 102 101 95 85 93 98 100 101 98 96 95 92 88 81 79 83 77 70 63 62
118 116 119 117 119 124 125 132 134 131 131 131 130 128 126 122 118 115 114 112 108 107 104 98 95 92 89 94 97 97 95 92 89 88 91 92 83 79 85 86 78 68 58
104 107 114 120 121 121 122 129 133 134 136 135 131 132 131 127 125 123 120 117 113 107 103 98 96 95 90 89 96 101 101 97 91 85 79 84 84 78 85 91 92 88 79
99 104 103 105 108 106 113 127 134 135 137 134 133 131 129 127 128 126 122 117 112 109 102 94 90 93 93 88 95 104 110 106 99 90 80 74 77 75 79 89 92 89 85
99 102 102 102 102 106 108 112 110 110 111 117 120 122 123 124 124 121 119 116 112 107 101 96 90 88 88 83 85 96 108 111 107 99 91 81 77 74 71 76 83 87 85
95 96 99 98 97 104 113 113 108 103 103 106 110 113 116 118 119 119 118 117 118 114 109 104 96 87 81 81 83 85 93 102 105 105 103 96 86 78 70 67 58 54 60
92 93 100 100 92 91 104 113 112 112 109 108 108 107 106 103 108 117 121 120 117 117 116 111 106 98 90 85 85 87 91 94 98 102 106 105 97 86 80 75 64 53 49
93 99 102 97 93 91 93 100 104 108 114 114 111 111 109 102 94 93 98 105 112 117 118 117 115 112 105 101 100 102 101 100 102 106 107 103 90 79 74 77 72 64 54
86 88 93 96 91 91 93 100 108 113 113 113 112 109 104 102 92 81 70 82 77 104 118 119 121 123 117 109 109 116 112 112 111 118 121 118 110 106 101 88 75 69 60
90 90 91 96 93 91 95 101 109 122 126 122 116 112 112 108 105 100 84 63 72 76 82 92 105 102 109 113 104 99 100 102 112 115 121 116 111 105 99 92 84 72 56
Height
1487 1490 1493 1496 1499 1501 1503 1506 1510 1513 1517 1521 1524 1528 1532 1535 1538 1540 1542 1545 1547 1550 1552 1555 1556 1558 1560 1561 1563 1564 1566 1567 1568 1569 1570 1571 1571 1572 1573 1574 1575 1575 1576
1485 1489 1492 1494 1496 1498 1501 1504 1508 1511 1515 1518 1522 1526 1530 1533 1535 1538 1540 1543 1545 1548 1551 1553 1554 1556 1558 1560 1561 1563 1565 1566 1567 1568 1569 1570 1571 1571 1572 1572 1573 1574 1575
1483 1487 1490 1493 1495 1497 1499 1502 1505 1509 1513 1517 1521 1525 1528 1530 1533 1536 1538 1541 1543 1546 1549 1551 1553 1555 1556 1558 1559 1561 1563 1564 1566 1567 1568 1569 1569 1569 1571 1571 1572 1572 1574
1481 1485 1489 1491 1494 1496 1498 1501 1504 1507 1511 1515 1518 1521 1524 1527 1530 1533 1536 1539 1541 1544 1546 1549 1550 1552 1554 1556 1558 1559 1561 1563 1564 1566 1567 1568 1568 1569 1569 1570 1570 1571 1572
1479 1483 1487 1489 1492 1495 1497 1500 1502 1505 1508 1512 1515 1518 1521 1524 1527 1530 1533 1536 1539 1541 1544 1546 1548 1550 1552 1554 1556 1558 1559 1561 1563 1564 1565 1566 1566 1567 1568 1568 1569 1570 1570
1477 1481 1486 1488 1491 1494 1497 1499 1501 1503 1506 1509 1512 1515 1518 1521 1524 1527 1530 1533 1536 1538 1541 1543 1545 1547 1550 1551 1553 1555 1557 1559 1560 1561 1563 1564 1565 1565 1566 1567 1567 1568 1569
1476 1481 1485 1488 1490 1493 1495 1497 1499 1501 1504 1507 1509 1512 1515 1518 1521 1524 1527 1530 1532 1535 1538 1540 1542 1544 1546 1549 1550 1552 1554 1556 1557 1559 1560 1562 1563 1564 1565 1565 1566 1566 1567
1476 1480 1484 1487 1490 1492 1494 1495 1497 1500 1502 1505 1507 1510 1513 1515 1518 1521 1524 1527 1529 1532 1535 1537 1539 1541 1543 1545 1547 1549 1551 1553 1554 1556 1557 1559 1560 1562 1563 1563 1564 1565 1566
1475 1479 1483 1486 1489 1491 1493 1494 1496 1498 1501 1503 1505 1507 1510 1513 1516 1518 1521 1524 1527 1529 1531 1533 1536 1538 1540 1542 1544 1546 1548 1550 1551 1553 1555 1556 1558 1559 1560 1561 1562 1564 1563
1475 1479 1483 1486 1489 1491 1493 1494 1496 1497 1499 1501 1503 1505 1507 1510 1512 1515 1518 1521 1523 1526 1528 1530 1532 1534 1537 1539 1541 1543 1545 1547 1548 1550 1552 1553 1555 1556 1558 1559 1560 1561 1562
1474 1479 1482 1486 1489 1490 1492 1494 1495 1497 1498 1500 1502 1504 1505 1507 1510 1512 1515 1518 1520 1523 1525 1527 1529 1532 1533 1535 1537 1539 1542 1544 1546 1547 1549 1550 1552 1553 1554 1556 1557 1558 1559
1474 1478 1482 1485 1488 1490 1492 1494 1495 1496 1498 1499 1501 1502 1504 1506 1507 1509 1512 1515 1518 1520 1522 1524 1526 1529 1531 1533 1535 1537 1539 1541 1543 1545 1546 1548 1549 1551 1552 1553 1555 1556 1556
1475 1479 1482 1485 1488 1490 1492 1493 1495 1496 1497 1498 1500 1501 1503 1505 1506 1508 1510 1512 1515 1517 1519 1522 1524 1526 1528 1530 1533 1535 1537 1539 1541 1543 1544 1545 1547 1548 1550 1551 1552 1553 1554
1475 1479 1482 1485 1487 1490 1492 1493 1494 1496 1497 1498 1499 1500 1502 1503 1505 1507 1509 1511 1513 1515 1517 1519 1522 1524 1526 1528 1531 1533 1535 1537 1539 1541 1542 1543 1545 1546 1548 1549 1550 1551 1552
1476 1479 1483 1485 1488 1490 1492 1493 1494 1495 1496 1497 1498 1500 1501 1503 1505 1506 1508 1510 1512 1514 1516 1518 1520 1522 1525 1527 1529 1531 1534 1535 1537 1539 1540 1542 1543 1545 1546 1547 1548 1549 1550
1477 1480 1483 1486 1488 1490 1491 1493 1494 1495 1496 1497 1498 1500 1501 1503 1504 1506 1507 1509 1511 1513 1515 1517 1519 1521 1524 1526 1528 1530 1532 1534 1536 1537 1539 1540 1542 1543 1545 1546 1547 1548 1548
1477 1480 1483 1486 1488 1490 1491 1493 1494 1495 1496 1497 1499 1500 1501 1503 1504 1506 1508 1509 1511 1513 1515 1517 1519 1521 1523 1525 1527 1529 1530 1532 1534 1536 1538 1539 1541 1542 1544 1544 1546 1547 1547
1477 1480 1483 1485 1487 1489 1491 1492 1494 1495 1496 1497 1499 1500 1502 1502 1504 1506 1508 1509 1511 1513 1515 1516 1519 1521 1523 1525 1526 1528 1530 1531 1533 1535 1537 1539 1541 1542 1543 1544 1545 1546 1547
1478 1480 1483 1485 1487 1489 1490 1492 1494 1495 1496 1498 1499 1501 1502 1503 1504 1506 1508 1510 1511 1513 1515 1517 1519 1521 1523 1525 1527 1528 1530 1531 1533 1535 1537 1539 1540 1541 1543 1544 1545 1546 1547
1479 1481 1483 1485 1486 1488 1490 1492 1494 1495 1496 1497 1499 1501 1502 1503 1505 1506 1508 1510 1512 1514 1515 1517 1520 1521 1523 1525 1527 1529 1530 1531 1533 1535 1537 1539 1541 1542 1543 1544 1545 1546 1548
1480 1482 1483 1485 1486 1488 1490 1491 1493 1495 1496 1497 1499 1500 1502 1503 1505 1506 1508 1510 1512 1514 1516 1517 1520 1522 1524 1526 1528 1529 1531 1532 1534 1535 1538 1540 1542 1543 1545 1546 1547 1548 1549
1480 1482 1483 1484 1486 1488 1489 1490 1492 1494 1495 1496 1498 1500 1501 1503 1504 1506 1508 1510 1512 1514 1516 1518 1520 1522 1524 1527 1529 1530 1532 1534 1535 1537 1539 1541 1544 1545 1546 1547 1548 1550 1550
1480 1482 1483 1484 1486 1487 1488 1489 1491 1493 1494 1496 1497 1499 1500 1502 1504 1506 1508 1510 1512 1514 1516 1518 1520 1523 1525 1527 1529 1531 1533 1535 1537 1539 1541 1543 1545 1546 1548 1549 1550 1551 1551
1480 1481 1483 1484 1485 1486 1487 1488 1490 1491 1493 1494 1496 1498 1500 1502 1504 1506 1508 1510 1512 1515 1517 1519 1521 1523 1526 1528 1530 1533 1535 1537 1539 1541 1543 1545 1547 1549 1550 1551 1552 1553 1553
1480 1481 1482 1483 1484 1485 1486 1487 1489 1490 1492 1494 1496 1498 1500 1502 1504 1506 1509 1511 1514 1516 1518 1520 1522 1524 1527 1530 1532 1534 1537 1539 1541 1543 1546 1548 1550 1551 1553 1554 1554 1555 1555
1479 1481 1481 1482 1484 1485 1486 1487 1488 1490 1492 1494 1496 1498 1500 1502 1504 1507 1510 1513 1516 1518 1521 1523 1525 1527 1530 1532 1535 1538 1540 1542 1545 1547 1549 1551 1552 1554 1555 1556 1556 1557 1556